Home   Weather   Wernigerode   Past weeks

Flag for Germany Past Weather in Wernigerode, Saxony-Anhalt, Germany — Yesterday and Last 2 Weeks

Now
34 °F

Clear.


Feels Like: 34 °F
Forecast: 29 / 40 °F
Wind: No wind

Location: Braunschweig Wolfsburg

Current Time: Apr 26, 2017 at 6:32:47 am

Latest Report: Apr 26, 2017 at 5:50 am


Visibility: 10 mi

Pressure: 29.83 "Hg

Humidity: 100%

Dew Point: 34 °F

Location of WernigerodeLocation

Past Weather in Wernigerode — Graph

°F

Wernigerode Temperature Yesterday

Maximum temperature yesterday: 52 °F (at 3:20 pm)
Minimum temperature yesterday: 39 °F (at 6:50 am)
Average temperature yesterday: 45 °F

High & Low Weather Summary for the Past Weeks

 TemperatureHumidityPressure
High57 °F (Apr 12, 1:50 pm)100% (Apr 11, 7:20 am)30.60 "Hg (Apr 11, 7:20 am)
Low25 °F (Apr 20, 6:50 am)34% (Apr 20, 3:20 pm)29.62 "Hg (Apr 25, 6:20 am)
Average46 °F70%30.11 "Hg
* Reported Apr 10 8:20 pm — Apr 25 8:20 pm, Wernigerode, Weather by CustomWeather, © 2017

Note: Actual official high and low records may vary slightly from our data, if they occured in-between our weather recording intervals... More about our weather records

Advertising

Wernigerode Weather History for the Previous 24 Hours

Scroll right to see more
 ConditionsComfort  
Time TempWeatherWind HumidityBarometerVisibility
8:20 pm
Tue, Apr 25
43 °FPassing clouds.8 mph71%29.77 "HgN/A
7:50 pm45 °FPassing clouds.9 mph66%29.77 "HgN/A
7:20 pm45 °FPassing clouds.9 mph71%29.77 "HgN/A
6:50 pm45 °FScattered clouds.13 mph66%29.77 "HgN/A
6:20 pm45 °FScattered clouds.13 mph71%29.74 "HgN/A
5:50 pm45 °FPartly sunny.13 mph81%29.74 "HgN/A
5:20 pm43 °FBroken clouds.13 mph87%29.74 "HgN/A
4:50 pm43 °FPartly sunny.14 mph87%29.74 "HgN/A
4:20 pm43 °FBroken clouds.16 mph87%29.74 "HgN/A
3:50 pm43 °FPartly sunny.16 mph81%29.71 "HgN/A
3:20 pm52 °FSunny.21 mph41%29.68 "Hg10 mi
2:50 pm50 °FPassing clouds.17 mph47%29.68 "HgN/A
2:20 pm50 °FScattered clouds.20 mph50%29.68 "HgN/A
1:50 pm48 °FScattered clouds.20 mph54%29.65 "HgN/A
1:20 pm50 °FSunny.20 mph50%29.65 "Hg10 mi
12:50 pm50 °FScattered clouds.21 mph50%29.65 "HgN/A
12:20 pm48 °FPassing clouds.18 mph54%29.65 "HgN/A
11:50 am46 °FScattered clouds.21 mph57%29.65 "HgN/A
11:20 am45 °FScattered clouds.15 mph87%29.65 "HgN/A
10:50 am43 °FMostly cloudy.13 mph100%29.65 "HgN/A
10:20 am43 °FMostly cloudy.14 mph100%29.65 "HgN/A
9:50 am43 °FMostly cloudy.14 mph100%29.62 "HgN/A
9:20 am43 °FMostly cloudy.10 mph100%29.62 "HgN/A
8:50 am43 °FMore clouds than sun.8 mph100%29.62 "HgN/A
8:20 am41 °FMore clouds than sun.9 mph100%29.62 "HgN/A
7:50 am41 °FLight rain. Low clouds.7 mph100%29.62 "HgN/A
7:20 am39 °FLight rain. Low clouds.6 mph100%29.62 "HgN/A
6:50 am39 °FMore clouds than sun.6 mph100%29.62 "HgN/A
6:20 am41 °FLight rain. Cloudy.6 mph100%29.62 "Hg5 mi
Weather by CustomWeather, © 2017

See weather overviewHow to use our weather pages